Location: ??????
(30.5519°N, 47.7720°E)
Time: 17:35:45
(UTC+00:00)

Cosmos 1812 Rocket - Pass Details

Date: 24 January 2021
Orbit: 604 x 633 km, 82.5° (Epoch: 02 March)

Event Time Altitude Azimuth Distance (km) Brightness Sun altitude
Rises 15:04:33 0° 6° (N) 2,886 6.8 -10.3°
Reaches altitude 10° 15:06:58 10° 16° (NNE) 1,972 5.8 -10.8°
Maximum altitude 15:10:54 32° 80° (E) 1,046 4.2 -11.6°
Drops below altitude 10° 15:14:46 10° 144° (SE) 1,949 5.9 -12.4°
Sets 15:17:09 0° 154° (SSE) 2,846 6.8 -12.9°
